{"data":{"norad_id":62157,"intl_designator":"2024-224U","name":"STARLINK-32503","alt_names":[],"object_type":"PAYLOAD","status":"ACTIVE","operator":null,"country":"US","launch_date":"2024-11-30","launch_site_code":"AFETR","launch_vehicle":null,"mission":null,"orbit_class":"UNKNOWN","rcs_meters":null,"size_class":null,"mass_kg":null,"dimensions":null,"purposes":["comms"],"wikipedia_slug":null,"has_3d_model":false,"image_url":null,"decayed_at":null,"tle_current":{"epoch":"2026-05-25T02:57:28.079424Z","epoch_age_seconds":71345,"freshness":"FRESH","line1":"1 62157U 24224U   26145.12324166  .00015813  00000+0  58252-3 0  9990","line2":"2 62157  43.0023  93.8721 0001531 265.0862  94.9815 15.27602350 83653","mean_motion":15.2760235,"eccentricity":0.0001531,"inclination_deg":43.0023,"raan_deg":93.8721,"arg_perigee_deg":265.0862,"mean_anomaly_deg":94.9815,"bstar":0.00058252,"rev_number":8365,"period_min":94.265369518448,"perigee_km":481.93173556987,"apogee_km":484.03261026061,"semimajor_km":6861.1191729152,"source":"CELESTRAK","updated_at":"2026-05-25T13:38:19.596422Z"}}}